Regional Weather Roundup
Issued by NWS

Home | Current Version | Previous Version | Text Only | Print | Product List | Glossary Off
Versions: 1 2 3 4 5 6 7 8 9 10 11 12 13 14 15 16 17 18 19 20 21 22 23 24 25 26 27 28 29 30 31 32 33 34 35 36 37 38 39 40 41 42 43 44 45 46 47 48 49 50

000
ASUS43 KIND 172209
RWRIN

WEATHER ROUNDUP FOR INDIANA
NATIONAL WEATHER SERVICE INDIANAPOLIS IN
500 PM EST TUE JAN 17 2017

NOTE: "FAIR" INDICATES FEW OR NO CLOUDS BELOW 12,000 FEET WITH NO
SIGNIFICANT WEATHER AND/OR OBSTRUCTIONS TO VISIBILITY.

* - STATION DOES NOT REPORT WEATHER SUCH AS PRECIPITATION OR FOG.

+ - STATION NOT QUALITY CONTROLLED BY THE NATIONAL WEATHER SERVICE.
    USE DATA WITH CAUTION...ESPECIALLY DEWPOINT AND RELATIVE
    HUMIDITY OBSERVATIONS.

INZ001>003-010>013-019-020-172300-
NORTHWEST INDIANA

CITY           SKY/WX    TMP DP  RH WIND       PRES   REMARKS
GARY /AIRPORT/ CLOUDY    39  37  93 W12       29.92R FOG
KNOX *+        CLOUDY    37  32  81 W9        29.92S
LA PORTE +     CLOUDY    37  37  99 W7        29.92R FOG
MICHIGAN CITY+ CLOUDY    37  37 100 SW8       29.92R FOG
MONTICELLO +   CLOUDY    40  39  96 W13       29.94R
RENSSELAER +   CLOUDY    37  37 100 W13       29.94S FOG
VALPARAISO     CLOUDY    39  38  96 SW12      29.92S FOG

$$

LMZ046-743>745-172300-
SOUTHERN LAKE MICHIGAN

STATION/POSITION TIME  TEMP    WIND        PRES    WAVE
                       AIR SEA DIR/SP/G            HT
                 (UTC) (F)     (DEG/KT/KT) (MB)    (FT)
BURNS HARBOR     2140   36     240/  8/  9 1013.5R

$$

INZ004-005-014>016-021>024-172300-
NORTH CENTRAL INDIANA

CITY           SKY/WX    TMP DP  RH WIND       PRES   REMARKS
ELKHART        CLOUDY    39  37  93 W9        29.89R FOG
GOSHEN         CLOUDY    39  37  92 W9        29.90R FOG
LOGANSPORT +   CLOUDY    41  41 100 W17       29.94R FOG
PERU/GRISSOM   CLOUDY    42  42 100 W13       29.92R
ROCHESTER +    FOG       41  41 100 W10       29.93R VSB 1/2
SOUTH BEND     CLOUDY    38  38 100 W10       29.90R FOG
WARSAW +       CLOUDY    39  36  87 SW14G21   29.91R FOG

$$

INZ006>009-017-018-025>027-172300-
NORTHEAST INDIANA

CITY           SKY/WX    TMP DP  RH WIND       PRES   REMARKS
ANGOLA *+      CLOUDY    39  39 100 W8        29.87S
AUBURN +       CLOUDY    41  39  93 W8        29.90R FOG
FORT WAYNE     CLOUDY    43  40  89 W20       29.90S
HUNTINGTON +   CLOUDY    42  41  96 W13       29.92R
KENDALLVILLE + CLOUDY    40  40 100 W15       29.88S FOG

$$

INZ028-029-035-036-043>045-051>053-172300-
WEST CENTRAL INDIANA

CITY           SKY/WX    TMP DP  RH WIND       PRES   REMARKS
CRAWFORDSVL +  CLOUDY    41  41 100 W12G17    29.98R
GREENCASTLE +  CLOUDY    43  41  93 W7G18     29.99R
LAFAYETTE      CLOUDY    41  40  96 W13       29.96R
TERRE HAUTE    CLOUDY    44  40  85 W10       30.01R FOG

$$

INZ030>032-037>040-046>048-054>057-064-065-172300-
CENTRAL INDIANA

CITY           SKY/WX    TMP DP  RH WIND       PRES   REMARKS
CP ATTERBURY + CLOUDY    46  41  81 W6        29.98R
COLUMBUS       CLOUDY    46  43  87 SW10      29.98R
FRANKFORT +    CLOUDY    45  43  95 W16       29.97R FOG
GREENWOOD *+   CLOUDY    46  43  90 W14G21    29.97R
INDIANAPOLIS   CLOUDY    44  40  85 W16       29.97R
-EAGLE CREEK   CLOUDY    44  40  85 W12G18    29.96R
KOKOMO +       CLOUDY    43  41  93 W12       29.95R
MARION +       CLOUDY    43  41  93 W17       29.94R FOG
MT COMFORT *+  CLOUDY    45  41  87 W10       29.96R
SHELBYVILLE    CLOUDY    47  41  80 W14       29.96R
ZIONSVILLE +   CLOUDY    41  40  97 W16       29.96R

$$

INZ033-034-041-042-049-050-058-059-172300-
EAST CENTRAL INDIANA

CITY           SKY/WX    TMP DP  RH WIND       PRES   REMARKS
MUNCIE         CLOUDY    46  43  89 W12       29.93R FOG

$$

INZ060-061-067>069-081>083-085>088-172300-
SOUTHWEST INDIANA

CITY           SKY/WX    TMP DP  RH WIND       PRES   REMARKS
EVANSVILLE     CLOUDY    47  39  74 W10       30.06R
HUNTINGBURG *+ CLOUDY    46  41  82 W13       30.04R
WASHINGTON +   CLOUDY    46  41  82 W9        30.03R

$$

INZ062-063-066-070>080-084-089>092-172300-
SOUTH CENTRAL AND SOUTHEAST INDIANA

CITY           SKY/WX    TMP DP  RH WIND       PRES   REMARKS
BLOOMINGTON    CLOUDY    46  39  76 W10       29.99R
MADISON *+     CLOUDY    50  43  76 W10       30.00R
NORTH VERNON + CLOUDY    48  45  87 W14       29.98R
SEYMOUR +      CLOUDY    48  41  76 W13       30.00R

$$





USA.gov is the U.S. government's official web portal to all federal, state and local government web resources and services.